Change the Weather History Date:

Thursday, January 17, 2013

  Actual Average Record
Temperature  
Mean Temperature 30 °F -  
Max Temperature 35 °F 32 °F 61 °F (1952)
Min Temperature 23 °F 12 °F -21 °F (1977)
Degree Days  
Heating Degree Days 36    
Moisture  
Dew Point 26 °F    
Average Humidity 78    
Maximum Humidity 87    
Minimum Humidity 64    
Precipitation  
Precipitation 0.00 in - - ()
Sea Level Pressure  
Sea Level Pressure 30.15 in    
Wind  
Wind Speed 7 mph (WNW)    
Max Wind Speed 17 mph    
Max Gust Speed 28 mph    
Visibility 10 miles    
Events      
Averages and records for this station are not official NWS values.
T = Trace of Precipitation, MM = Missing Value Source: NWS Daily Summary

Daily Weather History Graph

Daily Weather History Graph

Search for Another Location

Airport or City:

Trip Planner

Search our weather history database for the weather conditions in past years. The results will help you decide how hot, cold, wet, or windy it might be!

Date:

Astronomy

Jan. 17, 2013 Rise Set
Actual Time 7:52 AM EST 5:33 PM EST
Civil Twilight 7:22 AM EST 6:03 PM EST
Nautical Twilight 6:49 AM EST 6:36 PM EST
Astronomical Twilight 6:16 AM EST 7:09 PM EST
Moon 10:57 AM EST (1/17) No Moon Set
Length of Visible Light 10h 40m
Length of Day
9h 41m
Waxing Crescent, 37% of the Moon is Illuminated
Jan 17
Waxing Crescent
Jan 18
First Quarter
Jan 26
Full
Feb 3
Last Quarter
Feb 10
New

Hourly Weather History & Observations

Time (EST) Temp. Windchill Dew Point Humidity Pressure Visibility Wind Dir Wind Speed Gust Speed Precip Events Conditions
12:03 AM 32.0 °F 25.6 °F 21.2 °F 64% 30.03 in 10.0 mi West 6.9 mph - N/A   Mostly Cloudy
12:23 AM 32.0 °F 25.6 °F 23.0 °F 69% 30.05 in 10.0 mi WSW 6.9 mph - N/A   Overcast
12:42 AM 32.0 °F 25.6 °F 23.0 °F 69% 30.06 in 10.0 mi WSW 6.9 mph - N/A   Overcast
1:03 AM 32.0 °F 24.8 °F 23.0 °F 69% 30.05 in 10.0 mi West 8.1 mph - N/A   Overcast
1:23 AM 32.0 °F 25.6 °F 23.0 °F 69% 30.06 in 10.0 mi West 6.9 mph - N/A   Overcast
1:42 AM 32.0 °F 24.8 °F 23.0 °F 69% 30.06 in 10.0 mi West 8.1 mph - N/A   Overcast
2:03 AM 32.0 °F 25.6 °F 23.0 °F 69% 30.08 in 10.0 mi West 6.9 mph - N/A   Overcast
2:23 AM 32.0 °F 25.6 °F 24.8 °F 75% 30.07 in 10.0 mi West 6.9 mph - N/A   Overcast
2:42 AM 32.0 °F 27.5 °F 24.8 °F 75% 30.09 in 10.0 mi West 4.6 mph - N/A   Overcast
3:03 AM 32.0 °F 27.5 °F 24.8 °F 75% 30.08 in 10.0 mi West 4.6 mph - N/A   Overcast
3:42 AM 32.0 °F 28.7 °F 24.8 °F 75% 30.10 in 10.0 mi WSW 3.5 mph - N/A   Overcast
4:03 AM 32.0 °F 28.7 °F 24.8 °F 75% 30.10 in 10.0 mi WSW 3.5 mph - N/A   Overcast
4:22 AM 32.0 °F 27.5 °F 24.8 °F 75% 30.10 in 10.0 mi West 4.6 mph - N/A   Overcast
4:42 AM 32.0 °F - 24.8 °F 75% 30.10 in 10.0 mi Calm Calm - N/A   Overcast
5:03 AM 32.0 °F 28.7 °F 26.6 °F 80% 30.10 in 10.0 mi SSW 3.5 mph - N/A   Overcast
5:22 AM 32.0 °F 27.5 °F 26.6 °F 80% 30.11 in 10.0 mi SSW 4.6 mph - N/A   Overcast
5:43 AM 32.0 °F 28.7 °F 26.6 °F 80% 30.10 in 10.0 mi SSW 3.5 mph - N/A   Overcast
6:03 AM 32.0 °F 28.7 °F 26.6 °F 80% 30.12 in 10.0 mi SW 3.5 mph - N/A   Overcast
6:22 AM 32.0 °F 28.7 °F 26.6 °F 80% 30.11 in 10.0 mi WSW 3.5 mph - N/A   Overcast
6:43 AM 32.0 °F 27.5 °F 26.6 °F 80% 30.12 in 10.0 mi SSW 4.6 mph - N/A   Overcast
7:03 AM 32.0 °F 27.5 °F 26.6 °F 80% 30.13 in 10.0 mi West 4.6 mph - N/A   Overcast
7:22 AM 32.0 °F 25.6 °F 26.6 °F 80% 30.13 in 10.0 mi WNW 6.9 mph - N/A   Overcast
7:43 AM 32.0 °F 25.6 °F 26.6 °F 80% 30.13 in 10.0 mi WNW 6.9 mph - N/A   Overcast
8:03 AM 32.0 °F 26.4 °F 26.6 °F 80% 30.13 in 10.0 mi NW 5.8 mph - N/A   Overcast
8:22 AM 32.0 °F 25.6 °F 26.6 °F 80% 30.15 in 10.0 mi WNW 6.9 mph - N/A   Mostly Cloudy
8:43 AM 32.0 °F 25.6 °F 28.4 °F 87% 30.17 in 10.0 mi NW 6.9 mph - N/A   Mostly Cloudy
9:03 AM 32.0 °F 28.7 °F 28.4 °F 87% 30.17 in 7.0 mi WNW 3.5 mph - N/A   Overcast
9:22 AM 32.0 °F 28.7 °F 28.4 °F 87% 30.18 in 10.0 mi WNW 3.5 mph - N/A   Overcast
9:43 AM 32.0 °F 27.5 °F 28.4 °F 87% 30.20 in 7.0 mi WNW 4.6 mph - N/A   Overcast
10:03 AM 32.0 °F - 28.4 °F 87% 30.19 in 10.0 mi Calm Calm - N/A   Mostly Cloudy
10:22 AM 32.0 °F 28.7 °F 28.4 °F 87% 30.20 in 10.0 mi West 3.5 mph - N/A   Scattered Clouds
10:43 AM 32.0 °F 27.5 °F 28.4 °F 87% 30.19 in 10.0 mi WNW 4.6 mph - N/A   Clear
11:03 AM 32.0 °F 26.4 °F 28.4 °F 87% 30.19 in 10.0 mi WNW 5.8 mph - N/A   Clear
11:22 AM 32.0 °F 24.8 °F 28.4 °F 87% 30.18 in 10.0 mi WNW 8.1 mph - N/A   Clear
11:43 AM 32.0 °F 24.8 °F 28.4 °F 87% 30.18 in 10.0 mi WNW 8.1 mph - N/A   Clear
12:03 PM 33.8 °F 27.0 °F 28.4 °F 81% 30.17 in 10.0 mi WNW 8.1 mph - N/A   Clear
12:23 PM 33.8 °F 27.7 °F 28.4 °F 81% 30.16 in 10.0 mi WNW 6.9 mph - N/A   Clear
12:43 PM 33.8 °F 25.3 °F 28.4 °F 81% 30.14 in 10.0 mi NW 11.5 mph - N/A   Clear
1:02 PM 33.8 °F 25.8 °F 28.4 °F 81% 30.13 in 10.0 mi NW 10.4 mph - N/A   Clear
1:23 PM 33.8 °F 26.4 °F 28.4 °F 81% 30.12 in 10.0 mi NW 9.2 mph - N/A   Scattered Clouds
1:43 PM 33.8 °F 25.8 °F 30.2 °F 87% 30.10 in 10.0 mi NW 10.4 mph - N/A   Scattered Clouds
2:02 PM 33.8 °F 25.3 °F 28.4 °F 81% 30.10 in 10.0 mi NW 11.5 mph - N/A   Scattered Clouds
2:23 PM 33.8 °F 27.0 °F 28.4 °F 81% 30.11 in 10.0 mi NNW 8.1 mph - N/A   Mostly Cloudy
2:43 PM 33.8 °F 23.5 °F 26.6 °F 75% 30.10 in 10.0 mi NNW 16.1 mph 19.6 mph N/A   Scattered Clouds
3:02 PM 35.6 °F 27.5 °F 28.4 °F 75% 30.10 in 10.0 mi NNW 11.5 mph 18.4 mph N/A   Clear
3:23 PM 35.6 °F 28.6 °F 28.4 °F 75% 30.12 in 10.0 mi NNW 9.2 mph - N/A   Clear
3:43 PM 35.6 °F 28.6 °F 28.4 °F 75% 30.12 in 10.0 mi North 9.2 mph - N/A   Scattered Clouds
4:02 PM 35.6 °F 29.2 °F 28.4 °F 75% 30.13 in 10.0 mi NNW 8.1 mph - N/A   Scattered Clouds
4:23 PM 35.6 °F 27.5 °F 28.4 °F 75% 30.12 in 10.0 mi NW 11.5 mph - N/A   Scattered Clouds
4:43 PM 35.6 °F 28.6 °F 28.4 °F 75% 30.12 in 10.0 mi NNW 9.2 mph - N/A   Clear
5:02 PM 33.8 °F 27.0 °F 28.4 °F 81% 30.12 in 10.0 mi NW 8.1 mph - N/A   Clear
5:23 PM 33.8 °F 27.0 °F 26.6 °F 75% 30.13 in 10.0 mi NW 8.1 mph - N/A   Clear
5:42 PM 33.8 °F - 28.4 °F 81% 30.17 in 10.0 mi Calm Calm - N/A   Clear
6:03 PM 33.8 °F 30.8 °F 26.6 °F 75% 30.18 in 10.0 mi SW 3.5 mph - N/A   Clear
6:23 PM 32.0 °F 26.4 °F 26.6 °F 80% 30.20 in 10.0 mi SW 5.8 mph - N/A   Clear
6:42 PM 32.0 °F 27.5 °F 28.4 °F 87% 30.20 in 10.0 mi SW 4.6 mph - N/A   Clear
7:03 PM 32.0 °F 28.7 °F 26.6 °F 80% 30.20 in 10.0 mi West 3.5 mph - N/A   Scattered Clouds
7:23 PM 32.0 °F 26.4 °F 28.4 °F 87% 30.21 in 10.0 mi WNW 5.8 mph - N/A   Mostly Cloudy
7:42 PM 32.0 °F 26.4 °F 26.6 °F 80% 30.23 in 10.0 mi WNW 5.8 mph - N/A   Mostly Cloudy
8:03 PM 32.0 °F 22.5 °F 26.6 °F 80% 30.23 in 10.0 mi NW 12.7 mph 17.3 mph N/A   Scattered Clouds
8:23 PM 32.0 °F 22.5 °F 23.0 °F 69% 30.24 in 10.0 mi NW 12.7 mph 17.3 mph N/A   Scattered Clouds
8:42 PM 32.0 °F 22.5 °F 23.0 °F 69% 30.24 in 10.0 mi NW 12.7 mph 19.6 mph N/A   Clear
9:03 PM 30.2 °F 20.8 °F 23.0 °F 75% 30.25 in 10.0 mi NW 11.5 mph - N/A   Clear
9:23 PM 30.2 °F 21.3 °F 21.2 °F 69% 30.25 in 10.0 mi NW 10.4 mph 18.4 mph N/A   Clear
10:03 PM 28.4 °F 18.0 °F 19.4 °F 69% 30.27 in 10.0 mi NW 12.7 mph - N/A   Clear
10:22 PM 26.6 °F 14.7 °F 19.4 °F 74% 30.28 in 10.0 mi NW 15.0 mph 23.0 mph N/A   Clear
10:43 PM 26.6 °F 15.2 °F 19.4 °F 74% 30.29 in 10.0 mi NW 13.8 mph 18.4 mph N/A   Clear
11:03 PM 26.6 °F 13.8 °F 17.6 °F 69% 30.30 in 10.0 mi NW 17.3 mph 27.6 mph N/A   Scattered Clouds
11:22 PM 24.8 °F 12.4 °F 17.6 °F 74% 30.30 in 10.0 mi NW 15.0 mph 25.3 mph N/A   Scattered Clouds
11:43 PM 23.0 °F 11.7 °F 14.0 °F 68% 30.32 in 10.0 mi NW 11.5 mph - N/A   Clear